Kenai, AK

11:00 PM AKST on December 08, 2019 (GMT -0900)
Kenai Municipal

Weather History for PAEN - October, 2019

Change the Weather History Date:

Sunday, October 27, 2019

  Actual Average Record
Temperature  
Mean Temperature 46 °F -  
Max Temperature 48 °F 35 °F 50 °F (1974)
Min Temperature 44 °F 19 °F -9 °F (1996)
Degree Days  
Heating Degree Days 19    
Moisture  
Dew Point 39 °F    
Average Humidity 78    
Maximum Humidity 90    
Minimum Humidity 58    
Precipitation  
Precipitation 0.91 in - - ()
Sea Level Pressure  
Sea Level Pressure 30.19 in    
Wind  
Wind Speed 10 mph (NE)    
Max Wind Speed 16 mph    
Max Gust Speed 24 mph    
Visibility 9 miles    
Events Rain    
Averages and records for this station are not official NWS values.
T = Trace of Precipitation, MM = Missing Value Source: NWS Daily Summary

Daily Weather History Graph

Daily Weather History Graph

Search for Another Location

Airport or City:

Astronomy

Oct. 27, 2019 Rise Set
Actual Time 9:16 AM AKDT 6:19 PM AKDT
Civil Twilight 8:31 AM AKDT 7:04 PM AKDT
Nautical Twilight 7:41 AM AKDT 7:54 PM AKDT
Astronomical Twilight 6:52 AM AKDT 8:43 PM AKDT
Moon 8:13 AM AKDT (10/27) 6:50 PM AKDT (10/27)
Length of Visible Light 10h 33m
Length of Day
9h 03m
Waning Crescent, 0% of the Moon is Illuminated
Oct 27
Waning Crescent
Oct 27
New
Nov 4
First Quarter
Nov 12
Full
Nov 19
Last Quarter

Hourly Weather History & Observations

Time (AKDT) Temp. Windchill Dew Point Humidity Pressure Visibility Wind Dir Wind Speed Gust Speed Precip Events Conditions
12:53 AM 45.0 °F 40.6 °F 36.0 °F 71% 30.37 in 10.0 mi NE 8.1 mph - 0.01 in   Overcast
1:53 AM 48.0 °F - 34.0 °F 58% 30.38 in 10.0 mi ENE 8.1 mph - 0.00 in   Overcast
2:53 AM 46.9 °F - 35.1 °F 63% 30.38 in 10.0 mi NE 4.6 mph - 0.00 in Rain Light Rain
3:53 AM 46.9 °F - 36.0 °F 66% 30.37 in 10.0 mi East 11.5 mph - 0.01 in Rain Light Rain
4:53 AM 46.0 °F 41.9 °F 37.0 °F 71% 30.35 in 10.0 mi ENE 8.1 mph - 0.00 in Rain Light Rain
5:53 AM 46.0 °F 41.9 °F 37.0 °F 71% 30.32 in 10.0 mi ENE 8.1 mph - 0.00 in   Overcast
6:53 AM 45.0 °F 40.1 °F 37.0 °F 74% 30.29 in 10.0 mi North 9.2 mph - 0.00 in Rain Light Rain
7:53 AM 45.0 °F 39.3 °F 37.0 °F 74% 30.28 in 10.0 mi North 11.5 mph - 0.00 in Rain Light Rain
8:53 AM 45.0 °F 40.1 °F 37.9 °F 76% 30.27 in 10.0 mi North 9.2 mph - 0.00 in   Overcast
9:53 AM 45.0 °F 38.5 °F 37.9 °F 76% 30.22 in 10.0 mi North 13.8 mph - 0.00 in   Overcast
10:53 AM 45.0 °F 38.2 °F 39.9 °F 82% 30.21 in 10.0 mi North 15.0 mph - 0.01 in Rain Light Rain
12:53 PM 46.9 °F - 41.0 °F 80% 30.17 in 9.0 mi ENE 16.1 mph 23.0 mph 0.12 in Rain Light Rain
1:53 PM 46.9 °F - 42.1 °F 83% 30.14 in 6.0 mi NE 12.7 mph - 0.09 in Rain Rain
2:53 PM 46.9 °F - 41.0 °F 80% 30.12 in 5.0 mi East 15.0 mph - 0.13 in Rain Rain
3:53 PM 44.6 °F 37.8 °F 41.0 °F 87% 30.10 in 5.0 mi East 15.0 mph 24.2 mph N/A Rain Rain
4:53 PM 45.0 °F 38.9 °F 41.0 °F 86% 30.07 in 7.0 mi East 12.7 mph - 0.13 in Rain Rain
5:53 PM 45.0 °F 38.2 °F 42.1 °F 90% 30.06 in 4.0 mi East 15.0 mph - 0.14 in Rain Rain
6:53 PM 45.0 °F 40.6 °F 41.0 °F 86% 30.06 in 7.0 mi East 8.1 mph - 0.07 in Rain Light Rain
7:53 PM 45.0 °F 40.6 °F 42.1 °F 90% 30.05 in 9.0 mi ENE 8.1 mph - 0.08 in Rain Light Rain
8:53 PM 45.0 °F 41.8 °F 41.0 °F 86% 30.04 in 10.0 mi NE 5.8 mph - 0.05 in Rain Light Rain
9:53 PM 45.0 °F 40.6 °F 41.0 °F 86% 30.02 in 10.0 mi North 8.1 mph - 0.04 in Rain Light Rain
10:53 PM 45.0 °F 40.6 °F 41.0 °F 86% 30.02 in 10.0 mi NNE 8.1 mph - 0.03 in Rain Light Rain
11:53 PM 46.0 °F 41.9 °F 41.0 °F 83% 30.00 in 10.0 mi ENE 8.1 mph - 0.00 in   Overcast